Weather History for Whitefield, NH

Change the Weather History Date:

Tuesday, July 9, 2013

  Actual Average Record
Temperature  
Mean Temperature 72 °F -  
Max Temperature 82 °F 74 °F 88 °F (2008)
Min Temperature 64 °F 48 °F 37 °F (2000)
Cooling Degree Days 8    
Growing Degree Days 22 (Base 50)    
Moisture  
Dew Point 65 °F    
Average Humidity 82    
Maximum Humidity 94    
Minimum Humidity 58    
Precipitation  
Precipitation 0.31 in - - ()
Sea Level Pressure  
Sea Level Pressure 30.08 in    
Wind  
Wind Speed 1 mph (SSW)    
Max Wind Speed 8 mph    
Max Gust Speed -    
Visibility 9 miles    
Events Rain    
Averages and records for this station are not official NWS values.
T = Trace of Precipitation, MM = Missing Value Source: NWS Daily Summary

Daily Weather History Graph

Daily Weather History Graph

Search for Another Location

Airport:

Trip Planner

Search our weather history database for the weather conditions in past years. The results will help you decide how hot, cold, wet, or windy it might be!

Date:

Astronomy

Jul. 09, 2013 Rise Set
Actual Time 5:11 AM EDT 8:31 PM EDT
Civil Twilight 4:35 AM EDT 9:07 PM EDT
Nautical Twilight 3:48 AM EDT 9:53 PM EDT
Astronomical Twilight 2:50 AM EDT 10:51 PM EDT
Moon 6:37 AM EDT (7/9) 9:00 PM EDT (7/9)
Length of Visible Light 16h 31m
Length of Day
15h 20m
New Moon, 2% of the Moon is Illuminated
Jul 9
New Moon
Jul 15
First Quarter
Jul 22
Full
Jul 29
Last Quarter
Aug 6
New

Hourly Weather History & Observations

Time (EDT) Temp. Heat Index Dew Point Humidity Pressure Visibility Wind Dir Wind Speed Gust Speed Precip Events Conditions
12:14 AM 66.2 °F - 64.4 °F 94% 30.08 in 2.0 mi East 3.5 mph - 0.19 in Rain Heavy Rain
12:39 AM 66.2 °F - 64.4 °F 94% 30.08 in 3.0 mi Calm Calm - 0.29 in Rain Light Rain
12:52 AM 66.9 °F - 64.9 °F 93% 30.07 in 7.0 mi Calm Calm - 0.29 in Rain Light Rain
1:18 AM 66.2 °F - 64.4 °F 94% 30.08 in 10.0 mi Calm Calm - 0.01 in   Overcast
1:27 AM 66.2 °F - 64.4 °F 94% 30.08 in 10.0 mi Calm Calm - 0.01 in   Overcast
1:41 AM 66.2 °F - 64.4 °F 94% 30.08 in 10.0 mi Calm Calm - 0.01 in   Overcast
1:52 AM 66.9 °F - 64.0 °F 90% 30.07 in 10.0 mi Calm Calm - 0.01 in   Overcast
2:22 AM 66.2 °F - 62.6 °F 88% 30.08 in 10.0 mi Calm Calm - N/A   Mostly Cloudy
2:42 AM 66.2 °F - 64.4 °F 94% 30.08 in 7.0 mi Calm Calm - N/A   Overcast
2:52 AM 66.0 °F - 64.0 °F 93% 30.07 in 6.0 mi Calm Calm - N/A   Overcast
3:31 AM 66.2 °F - 64.4 °F 94% 30.08 in 8.0 mi Calm Calm - N/A   Overcast
3:45 AM 66.2 °F - 64.4 °F 94% 30.08 in 9.0 mi Calm Calm - N/A   Overcast
3:52 AM 66.9 °F - 64.0 °F 90% 30.07 in 10.0 mi Calm Calm - N/A   Overcast
4:01 AM 66.2 °F - 64.4 °F 94% 30.08 in 10.0 mi Calm Calm - N/A   Overcast
4:52 AM 66.9 °F - 64.0 °F 90% 30.07 in 9.0 mi Calm Calm - N/A   Overcast
5:30 AM 66.2 °F - 64.4 °F 94% 30.08 in 8.0 mi Calm Calm - N/A   Overcast
5:52 AM 66.9 °F - 64.0 °F 90% 30.09 in 7.0 mi Calm Calm - N/A   Overcast
6:52 AM 66.9 °F - 64.0 °F 90% 30.10 in 10.0 mi Calm Calm - N/A   Overcast
7:52 AM 68.0 °F - 64.9 °F 90% 30.11 in 7.0 mi Calm Calm - 0.00 in Rain Light Rain
8:04 AM 68.0 °F - 64.4 °F 88% 30.12 in 10.0 mi Calm Calm - 0.00 in   Overcast
8:52 AM 71.1 °F - 66.0 °F 84% 30.11 in 10.0 mi NE 3.5 mph - 0.00 in   Overcast
9:52 AM 73.9 °F - 66.9 °F 79% 30.10 in 10.0 mi Calm Calm - N/A   Overcast
10:01 AM 73.4 °F - 66.2 °F 78% 30.11 in 10.0 mi Calm Calm - N/A   Overcast
10:40 AM 77.0 °F - 66.2 °F 69% 30.11 in 10.0 mi Calm Calm - N/A   Mostly Cloudy
10:52 AM 77.0 °F - 66.0 °F 69% 30.10 in 10.0 mi WNW 4.6 mph - N/A   Mostly Cloudy
11:33 AM 78.8 °F - 66.2 °F 65% 30.10 in 10.0 mi NNW 3.5 mph - N/A   Mostly Cloudy
11:49 AM 77.0 °F - 66.2 °F 69% 30.10 in 10.0 mi WNW 4.6 mph - N/A   Mostly Cloudy
11:52 AM 77.0 °F - 66.0 °F 69% 30.09 in 10.0 mi WNW 3.5 mph - N/A   Mostly Cloudy
11:59 AM 78.8 °F - 66.2 °F 65% 30.09 in 10.0 mi Variable 3.5 mph - N/A   Scattered Clouds
12:10 PM 78.8 °F - 66.2 °F 65% 30.09 in 10.0 mi Calm Calm - N/A   Mostly Cloudy
12:22 PM 78.8 °F - 66.2 °F 65% 30.09 in 10.0 mi Calm Calm - N/A   Scattered Clouds
12:52 PM 79.0 °F - 64.9 °F 62% 30.07 in 10.0 mi Calm Calm - N/A   Mostly Cloudy
1:37 PM 73.4 °F - 66.2 °F 78% 30.08 in 10.0 mi South 8.1 mph - N/A   Overcast
1:52 PM 72.0 °F - 66.0 °F 81% 30.07 in 6.0 mi South 6.9 mph - 0.00 in Rain Light Rain
2:07 PM 73.4 °F - 68.0 °F 83% 30.08 in 7.0 mi Variable 4.6 mph - 0.01 in Rain Light Rain
2:52 PM 75.9 °F - 69.1 °F 79% 30.06 in 10.0 mi Calm Calm - 0.01 in   Mostly Cloudy
3:52 PM 81.0 °F 82.7 °F 64.9 °F 58% 30.03 in 10.0 mi South 4.6 mph - N/A   Partly Cloudy
4:52 PM 81.0 °F 83.0 °F 66.0 °F 60% 30.03 in 10.0 mi SSE 5.8 mph - N/A   Partly Cloudy
5:52 PM 78.1 °F - 64.9 °F 64% 30.02 in 10.0 mi South 5.8 mph - N/A   Mostly Cloudy
6:52 PM 75.0 °F - 64.0 °F 69% 30.04 in 10.0 mi Variable 5.8 mph - N/A   Partly Cloudy
7:52 PM 73.0 °F - 64.0 °F 73% 30.04 in 10.0 mi Calm Calm - N/A   Clear
8:52 PM 70.0 °F - 64.0 °F 81% 30.04 in 10.0 mi Calm Calm - N/A   Clear
9:52 PM 66.0 °F - 63.0 °F 90% 30.06 in 10.0 mi Calm Calm - N/A   Clear
10:52 PM 64.9 °F - 62.1 °F 90% 30.06 in 10.0 mi Calm Calm - N/A   Mostly Cloudy
11:52 PM 64.0 °F - 61.0 °F 90% 30.05 in 7.0 mi Calm Calm - N/A   Clear